Location: Vinland
(47.7731°N, 122.6974°W)
Time: 22:03:47
(UTC+00:00)

ISS - Visible Passes

Search period start: 02 February 2023 00:00
Search period end: 12 February 2023 00:00
Orbit: 412 x 419 km, 51.6° (Epoch: 02 February)

Date Brightness Start Highest point End Pass type
(mag) Time Alt. Az. Time Alt. Az. Time Alt. Az.
02 Feb -2.3 02:49:45 10° WNW 02:52:52 35° SW 02:55:03 16° SSE visible
03 Feb -3.0 02:00:56 10° WNW 02:04:14 53° SSW 02:07:31 10° SE visible
04 Feb -0.8 02:49:41 10° W 02:51:50 16° SW 02:53:58 10° S visible
05 Feb -1.4 02:00:27 10° W 02:03:15 25° SW 02:06:04 10° SSE visible
07 Feb -0.2 02:01:06 10° WSW 02:02:00 11° SW 02:02:54 10° SSW visible
